STARLINK-1608, 46146

Orbit data source: Space-Track

STARLINK-1608, 46146 is a payload satellite owned by SpaceX/Seattle (US) in LEO that was launched on Tue, 18 Aug 2020 UTC via an FALCON 9 launch vehicle from the Air Force Eastern Test Range (AFETR). Payloads include a variety of satellites, spacecraft, and rockets equipped with specific instruments for various scientific and technological missions. These include communications satellites like Starlink; space stations such as the ISS; scientific satellites like the Hubble; Earth observation satellites from companies like Planet Labs, Umbra, and HawkEye 360; GPS; miniature CubeSats for education and research; and military/defense satellites.

Loading next visibility...
STARLINK-1608 details
Identifier
46146, 2020-057AF
Orbit
LEO
Last TLE update22 hours ago
Origin
Flag of USSpaceX/Seattle (US)
ManufacturerSpaceX/Seattle
MissionOperational Commercial Communications
Bus & MotorSTARLINK, Unknown motor
Mass260 kg wet, ~248 kg dry
Launch date (UTC)
2020-08-18 (4 years ago)
Launch vehicle
FALCON 9
Launch site
Air Force Eastern Test Range (AFETR)
Object type
Payload
Rocket body
Debris
Shape & HBRBox + 1 Pan, 8.86 m
Radar Cross Section13.562 m², Large (>1 m²)

Expand to show TLE details & history

TLE from 22 hours ago
0 STARLINK-1608
1 46146U 20057AF  24360.63863355  .00010040  00000-0  69295-3 0  9998
2 46146  53.0560 127.5886 0001582 109.9875 250.1284 15.06344744239895
Epoch: 2024-12-25T15:19Z
Definitive object data (Epoch: 2024-12-25T15:19:37.938Z)
Latitude-0.00007°
Longitude163.05097°
Altitude548.633 km
Speed7.589 km/s
True Right ascension08h 30m 21s
True Declination0° 00' 00"
Sunlit
Object was in full shadow at TLE epoch
Visualization TLE readout
Latitude-13.90464°
Longitude148.2248°
Altitude551.738 km
Speed7.586 km/s
Apparent Right ascension04h 54m 33s
Apparent Declination-36° 45' 54"
Sunlit
Object is in full shadow
Visualization observer readout
Local Sidereal Time12:54:17
Azimuth253.734° W
Elevation-43.683°
Doppler factor1
Orbital elements
Apogee altitude548.747 km
Perigee altitude546.556 km
Semi-major axis6,925.788 km
Eccentricity0.0001582
Inclination53.056°
RAAN127.5886°
Arg. of periapsis109.9875°
True anomaly250.11135°
Mean anomaly250.1284°
Eccentric anomaly250.11988°
Mean motion3.76564 °/min
BSTAR0.00069295
Orbital period95.6 mins
Loading maneuver chart data...
Loading historical data...
Loading historical data...
Loading historical data...
Loading historical data...
Loading historical data...
Loading historical data...
Loading historical data...

STARLINK-1608 Visibility forecast

Observer location: undefined°, undefined

Span
Click to sort rows by Start time (UTC) header in descending order
Start Az.
Max El. time (UTC)
Max El. Az.
Max El.
End time (UTC)
End Az.
4 mins2024-12-26 13:56:36.198Z321.844° NNW2024-12-26 13:58:36.198Z354.083° N14.275°2024-12-26 14:00:36.198Z23.624° NE
5 mins2024-12-26 17:17:36.198Z337.921° N2024-12-26 17:19:36.198Z28.362° NE30.705°2024-12-26 17:22:36.198Z93.302° ESE
6 mins2024-12-26 18:56:36.198Z284.487° WNW2024-12-26 18:59:36.198Z213.37° SW28.808°2024-12-26 19:02:36.198Z164.135° S
6 mins2024-12-27 10:29:36.198Z196.139° SSW2024-12-27 10:31:36.198Z152.697° SSE33.56°2024-12-27 10:35:36.198Z63.593° ENE
5 mins2024-12-27 12:09:36.198Z283.226° WNW2024-12-27 12:11:36.198Z329.908° NNW27.493°2024-12-27 12:14:36.198Z29.605° NE
|